Location: Brunembert
(50.7122°N, 1.8935°E)
Time: 09:59:49
(UTC+00:00)

Cosmos 841 Rocket - Pass Details

Date: 22 April 2021
Orbit: 747 x 772 km, 74.0° (Epoch: 16 May)

Event Time Altitude Azimuth Distance (km) Brightness Sun altitude
Rises 20:46:19 0° 339° (NNW) 3,241 8.0 -15.1°
Reaches altitude 10° 20:48:55 10° 349° (N) 2,307 6.8 -15.4°
Maximum altitude 20:53:40 34° 54° (NE) 1,240 4.5 -16.0°
Enters shadow 20:56:16 22° 103° (ESE) 1,630 4.7 -16.3°
